Wind_Speed
30 34 34 33 38 37 36 36 36 33 30 31 36 34 33 32 30 28 24 20 16 13 12 11 9 7 6 5 6 7 7 9 12 13 14 13 13 10 16 21 21 19 19
16 25 28 26 30 33 37 35 35 34 32 32 39 37 37 36 35 28 27 24 18 15 13 11 9 8 6 6 6 6 7 8 10 11 14 15 13 14 14 19 22 21 19
4 7 20 22 25 30 30 33 34 37 34 34 37 37 35 37 32 31 29 24 20 18 15 12 9 7 3 3 3 4 7 9 9 10 13 15 14 15 14 17 22 21 17
11 1 3 1 9 16 22 27 29 32 35 38 37 36 34 34 34 32 27 22 21 20 18 14 11 7 4 3 5 7 8 9 11 11 12 14 15 15 16 20 21 22 20
22 14 3 7 9 6 5 20 24 26 25 27 31 32 33 34 33 29 26 24 23 21 20 17 15 13 10 10 11 12 15 16 14 13 13 15 16 17 18 20 23 22 21
23 29 17 10 6 9 6 10 9 13 28 28 34 33 34 33 30 28 24 21 20 21 22 19 18 16 16 16 16 16 19 21 19 16 14 16 19 18 18 20 22 24 24
16 16 19 27 41 39 17 26 9 13 13 18 29 32 30 30 29 26 21 19 18 21 23 22 20 19 19 19 20 21 22 23 22 20 19 18 19 20 18 20 21 26 26
22 17 17 21 27 30 36 37 29 20 30 20 14 24 31 35 34 31 25 26 26 23 23 22 22 21 22 23 25 26 25 24 22 22 19 19 17 17 17 19 20 23 27
30 28 27 22 21 21 27 29 27 31 39 35 26 23 20 22 25 27 29 30 27 28 29 27 28 28 27 24 25 27 27 26 22 20 17 17 20 19 15 18 20 19 25
25 23 24 29 30 27 19 21 20 21 24 30 32 32 29 28 28 27 28 29 32 32 33 32 32 30 28 26 26 29 30 26 21 19 15 15 17 22 21 17 19 22 25
29 27 29 26 21 24 29 29 28 27 25 27 27 24 27 28 29 31 31 34 33 33 35 36 35 32 29 29 27 30 31 24 21 17 13 14 16 19 19 19 19 22 23
29 31 31 30 29 30 29 28 27 28 31 31 31 33 34 33 34 34 33 34 34 34 35 36 35 32 31 31 30 29 29 24 22 18 16 15 17 19 20 19 20 20 18
39 39 37 37 37 37 38 39 39 40 41 42 41 43 44 42 43 41 40 40 41 43 39 35 34 35 34 34 32 33 30 26 24 23 21 18 16 16 19 18 18 20 25
38 39 42 46 48 48 47 46 46 47 48 49 50 52 53 50 47 45 41 40 40 43 43 44 46 42 39 36 34 33 35 30 29 27 26 23 22 19 21 22 20 25 25
34 36 37 38 39 39 42 43 44 45 44 44 44 42 44 43 42 38 34 33 33 34 33 36 39 41 45 46 41 37 38 35 33 33 31 28 27 24 24 25 25 25 29
36 37 38 38 38 39 40 40 39 39 38 37 38 38 38 39 37 35 32 27 25 24 28 34 38 40 43 44 44 44 44 41 39 36 36 33 30 29 27 26 33 26 33
33 35 36 37 38 38 39 39 40 40 39 39 39 40 41 42 40 38 34 29 28 30 35 37 38 37 40 41 42 44 47 45 39 37 37 34 32 33 29 29 33 29 33
33 34 35 36 37 37 38 39 38 38 38 39 40 39 40 42 42 39 35 34 42 40 43 43 39 38 36 41 42 40 40 40 38 35 35 33 33 35 33 33 31 32 36
31 33 34 36 37 38 38 40 39 38 38 38 37 38 37 37 33 31 33 40 44 50 53 51 47 43 35 35 39 40 43 38 34 33 33 31 34 37 37 34 33 33 38
31 33 33 35 38 39 38 38 37 40 41 40 38 40 35 31 35 35 36 38 42 45 45 45 50 51 47 42 28 31 40 37 33 32 31 28 30 36 39 37 36 34 38
27 29 29 30 32 33 34 36 38 38 40 39 39 40 39 35 35 34 34 34 38 41 41 41 42 48 52 52 46 34 33 37 35 33 33 28 30 37 37 39 36 34 36
25 26 26 27 27 28 29 30 32 33 34 36 37 36 36 35 36 36 33 32 31 33 36 39 40 39 40 45 55 56 36 29 31 31 31 26 30 34 37 37 36 35 39
18 18 18 20 22 24 26 27 29 30 31 31 31 31 30 31 31 32 32 32 32 33 34 35 37 38 39 38 41 53 50 38 31 32 26 25 32 32 34 36 35 35 38
13 12 11 12 15 19 22 23 25 26 27 28 28 28 28 28 28 29 29 29 31 33 34 33 33 35 36 38 37 39 45 53 38 30 27 28 32 34 36 34 31 33 34
20 17 16 15 15 10 6 10 15 17 19 21 22 23 24 25 25 26 27 27 29 29 30 33 31 31 32 34 37 38 43 48 45 34 27 27 32 34 34 31 31 34 36
25 22 20 18 15 12 11 10 6 7 12 17 20 20 19 22 23 23 23 24 24 26 27 29 27 27 28 31 32 37 43 45 43 34 30 29 31 32 33 34 33 36 36
Wind_Direction
247 234 230 231 230 230 231 232 229 228 225 229 228 223 223 226 227 227 233 237 237 240 248 264 283 296 295 292 311 310 312 311 307 303 304 308 306 295 260 250 244 252 254
244 235 231 230 233 236 236 236 234 227 226 228 226 224 227 229 228 231 234 238 239 240 243 245 267 287 301 290 285 309 326 316 316 302 302 304 300 292 273 263 246 244 245
27 266 240 235 238 239 238 240 238 232 228 224 223 230 230 226 225 230 233 235 238 241 241 236 250 262 291 340 336 312 295 307 313 311 301 300 290 289 268 257 251 242 235
273 225 97 182 230 233 230 238 240 238 236 235 231 222 225 222 225 230 231 237 240 243 239 234 234 235 249 282 334 344 331 308 302 307 297 294 287 280 270 252 242 240 232
262 256 225 103 40 157 206 243 231 231 225 227 226 224 223 222 227 232 237 242 245 242 238 234 234 237 252 274 294 314 324 324 308 293 286 288 282 272 269 260 242 243 239
267 253 247 254 279 306 48 11 355 250 236 228 225 227 225 225 229 234 234 238 242 242 240 240 239 243 254 269 284 294 305 314 312 296 282 277 278 281 272 267 247 229 226
297 298 287 265 258 281 267 286 341 342 318 255 245 247 240 237 230 228 230 239 244 246 244 244 244 249 257 268 279 283 292 299 301 295 275 270 274 274 286 268 261 245 248
299 289 289 285 285 273 265 271 253 274 288 290 264 247 247 249 241 229 232 238 250 244 246 251 255 258 266 270 273 276 282 290 297 295 273 260 269 273 277 281 280 248 239
296 289 289 283 288 270 263 259 264 253 248 258 262 251 237 241 238 241 239 247 242 245 250 250 253 262 267 267 266 269 277 286 292 290 269 258 249 259 261 268 256 245 234
292 298 291 286 272 273 267 254 249 251 243 246 248 252 252 236 235 235 236 237 245 247 246 253 257 261 264 264 258 266 272 280 286 280 260 255 247 250 253 259 264 254 237
279 281 280 278 276 266 261 261 254 257 250 250 254 248 248 247 244 244 240 243 247 249 249 252 252 258 260 260 259 261 265 276 275 276 264 256 245 243 249 253 252 252 250
275 270 265 264 263 262 263 261 261 257 259 261 262 262 260 258 255 252 249 247 249 252 254 255 258 258 256 257 259 260 265 257 260 261 260 261 253 244 247 251 251 250 253
270 267 265 266 267 266 268 267 265 264 264 264 264 265 264 264 265 262 261 257 252 254 252 252 253 252 253 254 253 257 256 250 251 252 258 265 259 250 249 255 255 243 247
276 272 269 268 267 268 268 269 269 268 267 267 265 264 265 268 268 268 266 262 257 253 252 254 252 252 251 251 249 249 246 249 247 257 260 263 252 250 239 246 243 237 236
281 279 278 276 273 271 269 268 267 266 266 266 265 265 263 263 264 266 263 259 254 254 257 252 249 246 245 245 243 243 245 245 249 255 255 252 248 246 237 243 236 233 229
279 277 275 274 273 272 272 273 272 272 268 265 260 257 262 264 263 263 260 255 249 244 246 246 245 242 241 241 239 239 241 242 253 251 249 246 244 236 238 235 235 232 234
275 275 274 272 271 270 270 270 271 272 270 269 263 261 258 259 261 256 245 236 238 244 248 250 245 241 246 241 240 238 240 245 247 250 245 241 237 227 233 234 221 224 230
273 272 270 269 268 268 268 267 266 263 262 263 266 261 257 256 254 249 246 245 240 231 236 241 244 244 239 245 241 239 241 244 240 238 239 233 230 221 226 229 229 228 230
275 270 266 267 264 264 265 264 261 258 259 260 262 263 262 261 256 248 241 240 242 241 234 235 236 237 236 237 244 241 239 239 226 234 230 225 224 217 221 229 228 233 234
281 276 272 268 267 265 261 257 257 260 261 256 257 258 256 253 255 250 242 240 239 240 240 239 237 237 236 233 230 242 227 221 225 229 221 222 229 224 222 223 227 232 232
288 283 279 274 269 266 262 261 260 259 256 257 257 255 256 254 256 258 257 248 240 239 241 243 244 242 240 235 232 232 218 219 220 223 219 223 229 221 217 221 227 233 231
294 290 285 278 276 271 266 262 260 259 258 256 256 256 254 250 254 255 254 251 242 239 242 243 243 240 242 236 231 231 231 219 213 216 216 221 225 221 219 217 225 224 221
310 302 292 282 276 274 270 265 261 258 257 259 261 261 259 257 253 249 246 243 239 238 235 235 239 239 237 235 231 230 229 226 216 222 225 222 222 215 217 220 224 221 219
359 350 336 329 313 293 274 266 263 263 262 263 262 260 259 255 251 248 243 241 240 238 241 238 234 235 233 231 229 227 224 226 222 223 223 225 219 212 221 217 223 224 223
25 23 25 22 27 13 341 288 277 275 272 269 266 264 262 258 255 250 245 240 239 238 234 236 233 229 229 228 226 214 210 210 219 220 220 220 217 220 225 219 218 218 220
28 27 26 24 23 35 46 46 18 332 307 293 286 281 273 266 260 251 247 243 238 235 230 231 229 221 222 226 215 208 207 210 215 221 220 221 218 215 219 221 217 218 217
Height
1465 1468 1470 1473 1478 1478 1480 1483 1486 1489 1493 1496 1499 1503 1506 1509 1511 1515 1518 1519 1521 1522 1524 1525 1525 1525 1525 1526 1526 1526 1526 1525 1524 1523 1521 1521 1521 1521 1521 1522 1522 1522 1522
1460 1464 1467 1467 1472 1474 1474 1477 1479 1482 1485 1488 1492 1496 1499 1503 1507 1512 1514 1515 1517 1518 1520 1521 1521 1522 1522 1522 1523 1523 1523 1523 1522 1521 1519 1519 1519 1518 1520 1519 1519 1519 1521
1458 1460 1463 1461 1463 1467 1469 1470 1473 1475 1476 1480 1484 1489 1492 1496 1501 1505 1508 1511 1513 1515 1516 1517 1518 1519 1519 1520 1520 1520 1520 1520 1520 1519 1519 1518 1517 1517 1517 1517 1517 1517 1519
1463 1458 1458 1458 1458 1458 1462 1465 1467 1469 1470 1475 1477 1481 1486 1490 1494 1499 1503 1505 1508 1510 1511 1513 1514 1515 1516 1517 1517 1517 1517 1517 1517 1517 1516 1516 1515 1515 1515 1515 1516 1517 1517
1457 1459 1456 1451 1458 1448 1455 1460 1461 1463 1464 1469 1474 1477 1480 1484 1488 1492 1496 1499 1501 1503 1504 1507 1509 1511 1512 1513 1514 1513 1513 1512 1513 1513 1513 1513 1512 1512 1512 1513 1515 1516 1515
1455 1453 1453 1453 1451 1454 1447 1457 1460 1457 1463 1463 1469 1472 1475 1478 1483 1486 1489 1491 1493 1495 1498 1501 1503 1505 1507 1508 1509 1509 1509 1508 1509 1509 1509 1509 1509 1508 1509 1509 1511 1511 1513
1450 1449 1448 1448 1448 1444 1440 1449 1450 1454 1461 1461 1461 1468 1470 1473 1477 1480 1483 1486 1487 1488 1491 1494 1497 1499 1501 1502 1503 1504 1504 1504 1504 1504 1503 1504 1504 1504 1506 1506 1507 1508 1508
1446 1444 1443 1442 1442 1442 1443 1447 1446 1448 1458 1460 1457 1461 1462 1467 1468 1472 1475 1478 1479 1480 1484 1488 1490 1492 1494 1495 1496 1497 1497 1498 1498 1498 1497 1498 1499 1499 1500 1502 1503 1504 1505
1441 1439 1440 1438 1438 1438 1440 1444 1444 1443 1448 1455 1456 1456 1454 1459 1461 1464 1469 1471 1469 1472 1477 1479 1483 1484 1486 1488 1489 1489 1490 1491 1492 1491 1490 1491 1493 1494 1496 1497 1498 1500 1501
1436 1433 1434 1430 1432 1434 1433 1434 1435 1438 1440 1448 1447 1444 1450 1450 1452 1454 1457 1457 1459 1463 1469 1470 1473 1476 1478 1480 1481 1483 1482 1484 1485 1485 1485 1485 1486 1488 1490 1492 1494 1495 1497
1429 1428 1427 1427 1426 1425 1425 1427 1429 1432 1433 1437 1438 1435 1440 1440 1444 1447 1449 1450 1451 1454 1457 1460 1463 1467 1470 1472 1474 1476 1475 1478 1478 1478 1479 1479 1480 1481 1483 1486 1488 1490 1492
1420 1418 1417 1418 1418 1419 1419 1421 1422 1422 1423 1424 1424 1425 1428 1432 1435 1438 1441 1442 1443 1444 1445 1449 1453 1457 1461 1464 1465 1468 1470 1470 1471 1471 1472 1474 1475 1476 1479 1481 1483 1486 1489
1408 1406 1406 1406 1406 1408 1408 1409 1410 1411 1411 1412 1412 1414 1417 1421 1423 1425 1429 1430 1430 1433 1435 1438 1443 1446 1451 1454 1456 1460 1462 1461 1462 1464 1466 1468 1470 1473 1476 1477 1479 1482 1485
1393 1392 1392 1392 1393 1394 1395 1396 1396 1396 1396 1397 1400 1401 1404 1405 1407 1412 1412 1415 1417 1420 1421 1424 1430 1434 1438 1441 1445 1448 1453 1453 1453 1456 1459 1462 1464 1467 1469 1471 1473 1476 1480
1381 1380 1379 1378 1378 1378 1379 1379 1379 1379 1381 1383 1384 1387 1391 1390 1392 1397 1400 1400 1404 1407 1409 1410 1413 1418 1422 1426 1431 1435 1443 1445 1444 1448 1451 1454 1457 1460 1463 1465 1467 1471 1474
1370 1368 1367 1367 1366 1365 1365 1364 1365 1365 1368 1370 1373 1376 1375 1376 1379 1383 1386 1388 1392 1397 1397 1397 1398 1402 1408 1411 1417 1423 1428 1433 1435 1438 1441 1445 1448 1452 1456 1459 1460 1465 1467
1360 1358 1356 1355 1354 1353 1353 1353 1351 1352 1353 1355 1358 1359 1360 1362 1366 1371 1375 1378 1383 1385 1383 1385 1385 1388 1395 1400 1405 1410 1413 1419 1426 1427 1430 1434 1439 1444 1448 1451 1454 1458 1462
1349 1348 1346 1345 1344 1343 1343 1342 1342 1342 1341 1340 1342 1345 1347 1349 1352 1356 1360 1365 1367 1369 1371 1371 1373 1379 1386 1390 1394 1398 1403 1407 1412 1416 1419 1424 1429 1434 1439 1443 1447 1451 1454
1337 1335 1334 1333 1332 1332 1331 1331 1331 1330 1329 1329 1331 1331 1333 1336 1339 1343 1348 1349 1350 1352 1357 1358 1363 1369 1375 1379 1382 1387 1392 1396 1402 1406 1410 1414 1419 1426 1430 1435 1440 1444 1447
1324 1322 1321 1320 1318 1318 1318 1319 1318 1318 1318 1318 1318 1319 1323 1326 1326 1329 1332 1334 1336 1338 1342 1345 1350 1357 1364 1370 1373 1376 1381 1387 1392 1396 1401 1406 1411 1416 1422 1428 1432 1436 1440
1313 1310 1308 1307 1305 1305 1305 1304 1304 1305 1305 1305 1305 1308 1311 1314 1314 1316 1318 1321 1323 1326 1329 1333 1339 1344 1350 1358 1364 1368 1371 1377 1382 1387 1393 1398 1403 1407 1413 1419 1425 1429 1433
1304 1300 1298 1296 1295 1293 1292 1292 1292 1293 1293 1294 1294 1296 1299 1303 1304 1305 1306 1308 1311 1316 1320 1325 1329 1334 1339 1344 1351 1356 1362 1368 1374 1380 1385 1390 1395 1400 1406 1412 1417 1422 1426
1296 1292 1289 1287 1285 1284 1283 1282 1282 1282 1282 1283 1284 1286 1288 1289 1291 1293 1295 1298 1301 1304 1309 1313 1317 1322 1327 1333 1339 1346 1353 1359 1367 1374 1378 1383 1389 1394 1399 1404 1410 1415 1420
1291 1287 1283 1280 1278 1275 1273 1272 1273 1273 1274 1274 1275 1276 1277 1279 1281 1282 1285 1288 1292 1296 1298 1303 1307 1310 1316 1322 1328 1335 1343 1353 1362 1367 1372 1377 1382 1388 1393 1399 1405 1410 1415
1291 1286 1282 1278 1274 1269 1268 1267 1267 1267 1267 1267 1267 1268 1268 1269 1271 1272 1274 1277 1280 1284 1288 1291 1295 1301 1306 1311 1318 1326 1335 1344 1354 1362 1367 1372 1377 1382 1388 1394 1400 1405 1410
1292 1287 1282 1278 1274 1270 1268 1267 1265 1264 1263 1261 1260 1260 1260 1260 1261 1263 1265 1268 1271 1275 1279 1284 1288 1293 1298 1303 1311 1319 1328 1338 1348 1356 1361 1365 1370 1376 1382 1388 1395 1400 1404